HADES-R (SO-124) is no longer on orbit HADES-R (SO-124) is classified as:
1 62690U 25009CK 26032.99082617 .05625566 23964-5 28010-2 0 9991 2 62690 97.3531 123.7793 0009683 299.0009 61.0309 16.20765875 58841